Date String (YYYY-MM-DD hh:mm:ss) UTC,Instrument flags,Ambient pressure (hPa),Sample flow (lpm),Bypass flow (lpm),Sample temperature (°C),Ambient temperature (°C),ASC tube jacket temperature (°C),LED temperature (°C),Box temperature (°C),Sample RH (%),Span deviation,Mass concentration (μg/m³),Mass concentration (μg/m³),Mass concentration (μg/m³)
DateTimeUTC,F1_M11,P_M11,Q1_M11,Q2_M11,T1_M11,T2_M11,T3_M11,T4_M11,T5_M11,U1_M11,ZSPAN_M11,X2_M11,X0_M11,X1_M11
2022-11-13 02:00:00,,0824.3,5.00,0.00,24.2,22.5,00.0,33.2,26.0,07.6,0001.4,0007.24,0013.20,0006.54
2022-11-13 02:01:00,,0824.3,5.00,0.00,24.2,22.5,00.0,33.2,26.0,07.7,0001.6,0007.25,0013.55,0006.52
2022-11-13 02:02:00,,0824.3,5.01,0.00,24.2,22.5,00.0,33.1,26.0,07.7,0002.2,0007.26,0013.80,0006.53
2022-11-13 02:03:00,,0824.3,4.99,0.00,24.2,22.5,00.0,33.1,26.0,07.8,0002.8,0007.29,0013.39,0006.52
2022-11-13 02:04:00,,0824.3,5.01,0.00,24.2,22.4,00.0,33.1,25.9,07.9,0003.5,0007.31,0013.89,0006.51
2022-11-13 02:05:00,,0824.2,5.00,0.00,24.2,22.4,00.0,33.1,25.9,07.9,0003.3,0007.25,0013.76,0006.50
2022-11-13 02:06:00,,0824.2,5.00,0.00,24.1,22.4,00.0,33.1,25.9,07.8,0002.8,0007.27,0013.82,0006.52
2022-11-13 02:07:00,,0824.2,5.00,0.00,24.1,22.4,00.0,33.1,25.9,07.8,0003.0,0007.28,0013.75,0006.54
2022-11-13 02:08:00,,0824.3,5.02,0.00,24.1,22.3,00.0,33.1,25.9,07.8,0002.6,0007.24,0013.52,0006.51
2022-11-13 02:09:00,,0824.2,4.99,0.00,24.1,22.3,00.0,33.0,25.9,07.8,0002.7,0007.21,0013.29,0006.50
2022-11-13 02:10:00,,0824.2,5.00,0.00,24.1,22.3,00.0,33.0,25.9,07.8,0003.8,0007.20,0013.22,0006.49
2022-11-13 02:11:00,,0824.2,4.99,0.00,24.1,22.3,00.0,33.0,25.8,07.8,0003.7,0007.19,0012.62,0006.50
2022-11-13 02:12:00,,0824.3,4.99,0.00,24.0,22.3,00.0,33.0,25.8,07.7,0003.5,0007.15,0012.18,0006.49
2022-11-13 02:13:00,,0824.2,5.00,0.00,24.0,22.3,00.0,33.0,25.7,07.8,0002.7,0007.08,0011.85,0006.47
2022-11-13 02:14:00,,0824.2,5.01,0.00,24.0,22.3,00.0,33.0,25.8,07.8,0003.2,0007.08,0012.07,0006.47
2022-11-13 02:15:00,,0824.2,4.99,0.00,24.0,22.3,00.0,33.0,25.8,07.8,0002.8,0007.09,0011.60,0006.46
2022-11-13 02:16:00,,0824.2,5.00,0.00,24.0,22.3,00.0,32.9,25.7,07.8,0002.5,0007.13,0012.01,0006.44
2022-11-13 02:17:00,,0824.1,5.00,0.00,24.0,22.3,00.0,32.9,25.7,07.8,0002.1,0007.10,0012.40,0006.39
2022-11-13 02:18:00,,0824.1,5.00,0.00,24.0,22.3,00.0,32.9,25.7,07.8,0002.2,0007.07,0012.73,0006.34
2022-11-13 02:19:00,,0824.1,5.01,0.00,24.0,22.3,00.0,32.9,25.7,07.8,0001.5,0007.08,0012.86,0006.32
2022-11-13 02:20:00,,0824.1,5.00,0.00,23.9,22.2,00.0,32.9,25.6,07.8,0001.2,0007.08,0012.89,0006.32
2022-11-13 02:21:00,,0824.1,4.99,0.00,23.9,22.2,00.0,32.9,25.6,07.8,0000.4,0007.09,0012.92,0006.32
2022-11-13 02:22:00,,0824.1,5.01,0.00,23.9,22.2,00.0,32.9,25.6,07.8,0001.0,0007.07,0012.94,0006.31
2022-11-13 02:23:00,,0824.0,5.00,0.00,23.9,22.1,00.0,32.9,25.6,07.8,0000.7,0007.10,0013.59,0006.30
2022-11-13 02:24:00,,0824.1,5.01,0.00,23.9,22.1,00.0,32.8,25.6,07.8,0000.6,0007.16,0014.03,0006.31
2022-11-13 02:25:00,,0824.1,4.98,0.00,23.9,22.1,00.0,32.8,25.6,07.8,0000.9,0007.19,0013.96,0006.31
2022-11-13 02:26:00,,0824.0,5.00,0.00,23.8,22.1,00.0,32.8,25.5,07.8,0001.1,0007.16,0014.42,0006.30
2022-11-13 02:27:00,,0824.1,4.99,0.00,23.8,22.1,00.0,32.8,25.5,07.8,0001.6,0007.10,0015.01,0006.28
2022-11-13 02:28:00,,0824.0,5.01,0.00,23.8,22.1,00.0,32.8,25.5,07.8,0002.9,0007.05,0014.90,0006.27
2022-11-13 02:29:00,,0823.9,5.00,0.00,23.8,22.1,00.0,32.8,25.5,07.8,0003.9,0007.03,0014.34,0006.29
2022-11-13 02:30:00,,0824.0,5.00,0.00,23.8,22.1,00.0,32.7,25.5,07.8,0004.7,0007.05,0014.33,0006.30
2022-11-13 02:31:00,,0824.0,5.00,0.00,23.8,22.1,00.0,32.7,25.5,07.8,0004.9,0007.06,0014.56,0006.29
2022-11-13 02:32:00,,0824.0,5.00,0.00,23.8,22.1,00.0,32.7,25.5,07.8,0004.5,0007.05,0014.79,0006.29
2022-11-13 02:33:00,,0823.9,4.99,0.00,23.8,22.0,00.0,32.7,25.5,07.8,0003.8,0007.04,0015.20,0006.29
2022-11-13 02:34:00,,0823.9,5.00,0.00,23.7,22.0,00.0,32.7,25.5,07.8,0003.9,0007.06,0016.07,0006.29
2022-11-13 02:35:00,,0824.0,5.01,0.00,23.7,22.0,00.0,32.7,25.5,07.8,0004.1,0007.06,0016.45,0006.30
2022-11-13 02:36:00,,0824.0,5.00,0.00,23.7,22.0,00.0,32.7,25.5,07.8,0003.3,0007.07,0016.63,0006.32
2022-11-13 02:37:00,,0824.0,5.00,0.00,23.7,22.0,00.0,32.6,25.5,07.8,0003.3,0007.10,0016.08,0006.34
2022-11-13 02:38:00,,0823.9,4.99,0.00,23.7,22.0,00.0,32.6,25.5,07.8,0002.2,0007.16,0015.07,0006.36
2022-11-13 02:39:00,,0824.0,5.00,0.00,23.7,22.0,00.0,32.6,25.5,07.8,0001.3,0007.20,0016.28,0006.36
2022-11-13 02:40:00,,0824.0,4.99,0.00,23.7,22.0,00.0,32.6,25.5,07.8,0000.6,0007.23,0017.08,0006.35
2022-11-13 02:41:00,,0824.0,4.99,0.00,23.7,22.0,00.0,32.6,25.5,07.8,-000.3,0007.21,0017.12,0006.35
2022-11-13 02:42:00,,0823.9,5.00,0.00,23.7,22.0,00.0,32.6,25.4,07.9,-000.8,0007.23,0017.00,0006.36
2022-11-13 02:43:00,,0823.9,5.02,0.00,23.6,22.0,00.0,32.6,25.4,07.9,-000.8,0007.27,0017.22,0006.37
2022-11-13 02:44:00,,0823.9,5.00,0.00,23.6,21.9,00.0,32.6,25.4,07.9,-000.4,0007.27,0017.20,0006.36
2022-11-13 02:45:00,,0823.9,4.99,0.00,23.6,21.9,00.0,32.6,25.4,07.8,0000.5,0007.26,0016.26,0006.36
2022-11-13 02:46:00,,0823.9,5.01,0.00,23.6,22.0,00.0,32.6,25.5,07.9,0000.2,0007.26,0015.39,0006.35
2022-11-13 02:47:00,,0823.8,5.00,0.00,23.6,21.9,00.0,32.5,25.4,07.9,0000.5,0007.22,0015.19,0006.33
2022-11-13 02:48:00,,0823.8,5.00,0.00,23.6,21.9,00.0,32.5,25.3,07.9,-000.4,0007.26,0015.20,0006.34
2022-11-13 02:49:00,,0823.7,5.00,0.00,23.6,21.9,00.0,32.5,25.3,07.9,0000.1,0007.22,0015.20,0006.34
2022-11-13 02:50:00,,0823.8,5.00,0.00,23.6,21.9,00.0,32.5,25.3,07.9,0000.7,0007.21,0014.40,0006.33
2022-11-13 02:51:00,,0823.8,5.00,0.00,23.6,21.8,00.0,32.5,25.3,07.9,0000.1,0007.16,0013.48,0006.30
2022-11-13 02:52:00,,0823.8,5.00,0.00,23.6,21.9,00.0,32.5,25.4,07.9,0000.4,0007.12,0013.19,0006.29
2022-11-13 02:53:00,,0823.8,5.00,0.00,23.6,21.9,00.0,32.4,25.3,07.9,0000.6,0007.11,0013.13,0006.28
2022-11-13 02:54:00,,0823.9,5.00,0.00,23.5,21.8,00.0,32.4,25.3,07.9,0000.9,0007.07,0012.72,0006.26
2022-11-13 02:55:00,,0823.8,5.00,0.00,23.5,21.8,00.0,32.4,25.3,07.9,0000.6,0007.01,0012.24,0006.24
2022-11-13 02:56:00,,0823.8,5.00,0.00,23.5,21.8,00.0,32.4,25.3,07.9,0000.4,0007.01,0012.53,0006.24
2022-11-13 02:57:00,,0823.8,5.00,0.00,23.5,21.8,00.0,32.4,25.2,07.9,0000.8,0006.99,0012.55,0006.23
2022-11-13 02:58:00,,0823.8,5.00,0.00,23.5,21.8,00.0,32.4,25.2,07.8,0000.8,0006.95,0012.56,0006.20
2022-11-13 02:59:00,,0823.7,5.00,0.00,23.5,21.8,00.0,32.4,25.2,07.8,0001.0,0006.90,0012.62,0006.16
